SCP
0 0 -0 0 0 0 0 0 0 0 0 0 0 0 0 0 0 0 0 0 0 0 0 0 0 0 0 0 1 1 1 1 1 1 1 1 1 1 1 1 1 1 1 1
0 0 0 0 0 0 0 0 0 0 0 0 0 0 0 0 0 0 0 0 0 0 0 0 0 0 0 0 1 1 1 1 1 1 1 1 1 1 1 1 1 1 1 1
0 0 0 0 0 0 0 0 0 0 0 0 0 0 0 0 0 0 0 0 0 0 0 0 0 0 0 0 0 1 1 1 1 1 1 1 1 1 1 1 1 1 0 0
0 0 0 0 0 0 0 0 0 0 0 0 0 0 0 0 0 0 0 0 0 0 0 0 0 0 0 0 0 1 1 1 1 1 1 1 1 1 1 1 1 1 0 0
0 0 0 0 0 0 0 0 0 0 0 0 0 0 0 0 0 0 0 0 0 0 0 0 0 0 0 0 0 1 1 1 1 1 1 1 1 1 1 1 1 1 0 0
0 0 0 0 0 0 0 0 0 0 0 0 0 0 0 0 0 0 0 0 0 0 0 0 0 0 0 0 0 0 1 1 1 1 1 1 1 1 1 1 1 1 0 0
0 0 0 0 0 0 0 0 0 0 0 0 0 0 0 0 0 0 0 0 0 0 0 0 0 0 0 0 0 0 0 0 0 0 1 1 1 1 1 1 1 1 0 0
0 0 0 0 0 0 0 0 0 0 0 0 0 0 0 0 0 0 0 0 0 0 0 0 0 0 0 0 0 0 0 0 0 0 0 1 1 0 0 0 0 0 0 0
0 0 0 0 0 0 0 0 0 0 0 0 0 0 0 0 0 0 0 0 0 0 0 0 0 0 0 0 0 0 0 0 0 0 0 0 0 0 0 0 0 0 0 0
0 0 0 0 0 0 0 0 0 0 0 0 0 0 0 0 0 0 0 0 0 0 0 0 0 0 0 0 0 0 0 0 0 0 0 0 0 0 0 0 0 0 0 0
0 0 0 0 0 0 0 0 0 0 0 0 0 0 0 0 0 0 0 0 0 0 0 0 0 0 0 0 0 0 0 0 0 0 0 0 0 0 0 0 0 0 0 0
0 0 0 0 0 0 0 0 0 0 0 0 0 0 0 0 0 0 0 0 0 0 0 0 0 0 0 0 0 0 0 0 0 0 0 0 0 0 0 0 0 0 0 0
0 0 0 0 0 0 0 0 0 0 0 0 0 0 0 0 0 0 0 0 0 0 0 0 0 0 0 0 0 0 0 0 0 0 0 0 0 0 0 0 0 0 0 0
0 0 0 0 0 0 0 0 0 0 0 0 0 0 0 0 0 0 0 0 0 0 0 0 0 0 0 0 0 0 0 0 0 0 0 0 0 0 0 0 0 0 0 0
0 0 0 0 0 0 0 0 0 0 0 0 0 0 0 0 0 0 0 0 0 0 0 0 0 0 0 0 0 0 0 0 0 0 0 0 0 0 0 0 0 0 0 0
0 0 0 0 0 0 0 0 0 0 0 0 0 0 0 0 0 0 0 0 0 0 0 0 0 0 0 0 0 0 0 0 0 0 0 0 0 0 0 0 0 0 0 0
0 0 0 0 0 0 0 0 0 0 0 0 0 0 0 0 0 0 0 0 0 0 0 0 0 0 0 0 0 0 0 0 0 0 0 0 0 0 0 0 0 0 0 0
0 0 0 0 0 0 0 0 0 0 0 0 0 0 0 0 0 0 0 0 0 0 0 0 0 0 0 0 0 0 0 0 0 0 0 0 0 0 0 0 0 0 0 0
0 0 0 0 0 0 0 0 0 0 0 0 0 0 0 0 0 0 0 0 0 0 0 0 0 0 0 0 0 0 0 0 0 0 0 0 0 0 0 0 0 0 0 0
0 0 0 0 0 0 0 0 0 0 0 0 0 0 0 0 0 0 0 0 0 0 0 0 0 0 0 0 0 0 0 0 0 0 0 0 0 0 0 0 0 0 0 0
0 0 0 0 0 0 0 0 0 0 0 0 0 0 0 0 0 0 0 0 0 0 0 0 0 0 0 0 0 0 0 0 0 0 0 0 0 0 0 0 0 0 0 0
0 0 0 0 0 0 0 0 0 0 0 0 0 0 0 0 0 0 0 0 0 0 0 0 0 0 0 0 0 0 0 0 0 0 0 0 0 0 0 0 0 0 0 0
0 0 0 0 0 0 0 0 0 0 0 0 0 0 0 0 0 0 0 0 0 0 0 0 0 0 0 0 0 0 0 0 0 0 0 0 0 0 0 0 0 0 0 0
0 0 0 0 0 0 0 0 0 0 0 0 0 0 0 0 0 0 0 0 0 0 0 0 0 0 0 0 0 0 0 0 0 0 0 0 0 0 0 0 0 0 0 0
0 0 0 0 0 0 0 0 0 0 0 0 0 0 0 0 0 0 0 0 0 0 0 0 0 0 0 0 0 0 0 0 0 0 0 0 0 0 0 0 0 0 0 0
0 0 0 0 0 0 0 0 0 0 0 0 0 0 0 0 0 0 0 0 0 0 0 0 0 0 0 0 0 0 0 0 0 0 0 0 0 0 0 0 0 0 0 0
Wind_Speed
3 4 2 4 5 6 6 6 4 1 2 1 2 3 3 2 2 3 4 4 4 5 6 5 5 5 4 3 2 2 1 1 0 0 1 1 1 2 2 2 2 3 3 4
4 1 4 3 2 4 5 6 3 1 1 2 2 2 3 2 2 3 3 3 3 4 4 4 5 5 5 3 2 2 1 1 1 1 2 2 2 3 2 2 2 3 3 4
3 5 2 2 1 3 4 5 5 4 2 5 5 5 5 4 3 3 3 3 3 3 3 3 4 5 5 4 3 3 2 2 2 3 2 2 2 3 2 2 1 2 3 3
2 3 2 3 3 6 5 4 5 6 8 5 6 5 5 4 3 2 2 2 3 3 3 4 4 4 4 4 3 3 2 3 3 4 3 4 3 3 3 2 2 3 3 3
2 3 4 4 6 7 6 6 7 8 9 8 5 7 3 3 1 2 2 3 3 3 3 3 4 4 4 4 4 3 3 3 3 4 4 4 3 3 2 2 2 3 2 3
2 2 4 5 4 3 4 6 6 8 8 6 2 6 1 3 4 4 3 3 4 4 4 3 3 4 4 4 4 4 4 4 4 4 4 4 4 4 3 3 2 2 2 2
2 4 3 4 4 0 4 7 4 5 4 1 2 4 4 5 4 4 4 3 3 3 4 4 4 4 4 5 5 5 5 4 4 4 4 4 4 4 3 3 2 3 2 2
3 2 5 5 6 6 4 7 6 6 6 4 1 2 5 5 5 4 4 3 2 3 4 4 4 4 4 5 5 5 5 5 4 4 3 3 4 3 2 3 3 3 3 3
5 3 3 4 4 6 4 4 5 7 7 6 1 2 5 3 4 5 5 3 3 4 5 5 4 5 5 5 5 5 5 4 4 4 3 3 3 3 2 3 3 3 3 3
5 4 2 2 3 2 5 5 4 6 6 6 3 2 4 5 6 6 5 4 4 4 5 6 4 5 4 4 4 4 4 4 4 3 3 3 3 2 2 3 3 3 3 4
5 4 2 2 3 6 3 2 5 5 5 6 5 4 7 6 6 6 6 5 5 5 5 6 5 4 4 4 4 4 4 4 4 4 3 4 4 3 3 2 2 3 3 4
3 5 3 1 3 3 4 5 5 5 5 4 5 3 7 6 6 6 6 6 6 6 6 6 5 5 4 5 4 4 4 4 4 4 3 3 4 3 3 2 3 3 4 4
4 4 5 4 5 2 2 4 4 5 5 5 5 3 6 6 6 6 6 6 6 6 5 5 5 5 5 5 5 5 5 4 4 4 3 3 3 2 3 3 3 4 4 4
5 3 4 5 5 4 4 5 5 5 4 4 5 6 6 8 7 7 6 6 6 6 6 6 5 5 5 5 5 4 4 4 4 4 4 3 3 3 3 3 3 4 4 3
4 2 1 1 1 2 3 5 5 4 5 5 6 7 8 8 7 7 6 6 6 6 7 6 6 5 5 5 5 5 5 4 4 4 4 3 3 3 3 4 4 4 3 3
2 3 3 3 3 1 2 4 4 4 4 4 5 6 7 6 6 6 6 6 6 7 7 7 6 6 5 5 5 5 5 4 4 4 4 3 3 3 3 4 4 4 3 4
3 4 5 4 3 5 2 3 3 3 3 5 6 7 7 7 7 7 6 6 7 7 7 7 7 6 5 5 5 5 5 4 4 4 3 4 3 3 3 4 4 4 4 4
4 5 4 4 4 3 5 4 3 4 3 4 5 6 7 7 7 6 5 6 7 7 7 7 7 7 6 5 5 5 4 4 4 4 4 4 4 3 3 4 4 4 3 3
3 4 4 4 4 2 3 2 4 5 3 4 5 6 7 7 7 2 5 7 7 7 6 6 6 6 6 5 5 5 4 3 4 4 4 4 4 4 4 4 4 4 3 3
3 4 5 4 5 2 4 4 4 6 3 5 6 8 8 8 7 5 6 6 6 6 5 5 6 5 5 5 5 5 4 4 4 4 4 4 4 3 3 4 4 3 3 3
3 4 5 6 5 0 5 3 4 4 5 7 8 8 8 8 8 7 6 5 5 6 5 5 5 5 4 4 4 4 5 4 4 4 4 4 3 3 3 3 3 3 2 3
4 3 4 4 5 1 5 2 3 5 6 7 8 8 8 8 7 6 5 5 5 5 5 6 5 5 4 4 3 4 4 4 4 4 4 3 3 3 2 2 2 2 3 2
3 4 4 4 3 4 0 2 4 5 6 7 8 8 8 8 7 6 5 5 5 6 5 5 5 5 4 3 3 3 3 3 3 3 3 3 2 2 2 2 2 2 2 3
2 2 4 5 3 2 3 3 4 5 7 7 8 8 7 7 7 6 5 5 5 5 5 5 5 5 4 3 3 3 3 3 3 3 3 2 2 1 2 2 2 3 3 3
4 3 5 6 5 4 4 5 6 7 7 8 7 7 7 7 7 6 5 5 5 5 4 4 5 5 4 3 3 2 2 2 3 3 3 2 2 1 1 2 3 3 4 4
5 6 6 5 4 6 6 6 7 8 8 7 7 8 7 7 6 6 5 4 4 4 4 4 5 5 4 4 3 2 2 2 3 3 3 2 2 1 1 1 1 3 1 1
Wind_Direction
211 245 327 353 325 315 301 290 288 4 93 223 170 133 120 127 119 98 90 80 69 66 66 56 39 31 40 43 38 46 41 55 292 268 271 271 269 271 265 268 284 275 278 273
210 99 24 334 301 276 275 280 294 101 111 260 188 152 131 121 98 80 80 72 53 53 57 43 31 25 24 28 21 29 42 357 291 313 285 278 287 273 272 290 287 285 284 277
354 41 8 289 305 292 285 299 314 303 251 210 215 192 159 137 114 87 66 49 35 34 25 19 16 15 13 13 4 11 0 323 314 301 289 300 280 272 274 287 282 290 283 275
43 45 298 301 344 316 304 338 300 274 260 232 234 262 150 160 140 75 30 25 18 11 12 13 7 6 4 0 1 355 348 333 318 301 305 299 292 290 297 294 299 287 282 290
55 14 338 336 348 321 329 317 284 270 263 263 234 270 130 142 35 23 6 354 8 5 357 4 359 359 2 359 355 348 340 320 310 299 292 288 290 293 299 297 291 284 294 289
67 49 0 353 331 314 308 282 246 244 250 251 304 286 26 60 356 352 357 0 354 351 345 345 350 357 1 355 348 340 332 318 309 297 295 289 293 293 295 292 292 280 273 276
131 110 65 350 314 275 307 300 270 246 242 306 39 288 39 46 19 356 345 350 340 328 333 329 337 349 351 350 345 339 334 322 315 302 295 293 293 282 279 284 287 292 295 294
320 73 51 14 345 325 327 314 323 310 313 323 264 305 68 55 32 18 7 6 2 336 344 337 340 343 340 341 342 337 328 323 318 314 311 302 293 285 291 293 295 294 298 311
340 2 59 23 352 320 319 335 335 286 282 282 290 113 118 63 24 20 14 12 3 349 346 339 339 334 333 334 334 333 332 331 327 322 320 300 291 293 300 294 287 295 300 295
329 298 354 356 250 75 345 335 289 289 307 300 299 349 30 23 6 4 3 358 348 342 340 338 337 337 333 327 326 326 327 331 329 325 320 321 304 289 288 300 325 315 307 306
322 290 298 277 351 357 350 344 323 303 304 303 314 36 46 12 2 356 354 352 347 343 338 334 335 337 331 330 326 332 329 325 323 325 326 320 308 297 289 295 309 308 303 299
343 298 296 346 66 13 4 354 333 315 316 291 297 51 61 18 10 358 355 354 346 338 334 339 348 340 335 337 337 333 327 329 322 321 320 314 307 302 297 304 309 310 309 306
328 285 267 188 161 125 20 8 340 310 293 298 302 51 55 15 2 356 353 352 344 342 340 348 353 346 343 342 338 333 330 331 323 319 313 311 305 301 303 307 308 307 307 309
286 294 314 337 0 358 347 353 345 315 307 321 339 344 358 355 351 352 350 349 346 347 347 351 352 348 346 344 339 334 335 334 325 316 310 312 305 299 303 307 306 305 309 310
287 265 273 306 332 343 346 346 348 348 335 329 338 338 351 354 345 344 342 343 343 346 350 349 347 347 343 343 340 337 335 337 326 317 318 325 318 313 312 314 311 312 313 310
292 278 251 229 222 270 325 338 342 348 340 330 324 344 9 353 344 340 340 343 341 345 348 346 345 345 343 341 335 333 333 331 322 324 333 339 329 321 314 310 307 311 323 328
260 259 266 255 242 260 261 2 349 347 351 334 334 355 355 348 346 339 335 340 343 342 344 344 343 340 337 333 330 328 331 328 322 327 336 341 337 334 332 328 329 336 340 338
270 265 268 282 260 251 77 50 347 319 342 349 341 346 345 344 334 325 335 337 339 336 337 340 338 336 331 330 328 322 321 318 320 325 336 341 333 332 336 335 343 348 348 342
262 264 271 275 267 227 138 35 335 307 308 17 349 341 337 335 308 323 1 341 333 332 332 333 331 330 329 332 328 322 317 318 325 334 341 343 336 337 344 353 358 359 354 350
197 247 263 265 280 295 64 40 335 283 246 39 344 329 328 320 312 353 355 331 328 329 327 326 326 331 333 335 330 325 326 331 336 343 350 347 347 346 349 357 354 352 345 346
209 222 249 264 267 333 60 21 292 281 8 353 326 321 316 317 326 332 323 318 323 323 323 324 328 332 331 328 325 323 330 340 346 347 352 356 357 353 354 355 345 336 335 351
276 262 246 260 262 66 69 349 331 346 340 322 318 316 313 311 313 311 311 316 318 318 320 323 325 326 326 326 324 325 334 342 345 351 357 359 356 347 6 356 342 340 331 328
264 307 312 305 346 54 49 317 332 324 318 320 317 316 311 304 305 306 308 312 314 318 317 315 315 316 324 326 322 322 331 334 343 353 355 355 354 349 352 337 333 324 320 334
227 269 265 265 263 284 288 300 306 310 313 313 312 308 306 304 304 302 301 303 306 309 308 307 308 312 320 322 319 319 325 334 338 341 340 334 328 327 356 329 335 345 346 347
284 249 252 257 279 285 273 297 307 309 311 309 310 308 306 302 299 298 296 296 298 301 302 300 303 307 313 320 321 322 326 329 328 325 322 317 310 338 342 355 354 346 12 5
244 248 258 278 301 292 299 308 304 301 304 307 307 307 306 302 300 296 291 290 292 293 292 294 301 305 311 314 313 317 312 310 306 301 306 309 313 326 309 319 55 67 44 74